Pagina principale
METAR-TAF:

METAR-TAF

Aeroporti :

Colmar, Francia

latitudine: 48-06-37N, longitudine: 7-21-33E, altezza: 191 m

Osservazione

Il bollettino è stato emesso 12 minuti fa, alle 19:30 UTC
Vento 13 kt da sud/sud-ovest
Temperature 16°C
Umidità 42%
Pressione 1013 hPa
Visibilità 10 km o più
nessuna nube inferiore a 1500 m e nessun cumulonembo

METAR: LFGA 161930Z AUTO 21013KT CAVOK 16/03 Q1013

Ora: 20:42 (19:42 UTC)


TAF: mancante

Osservazioni e previsioni meteorologiche di più di 4000 aeroporti (messaggi METAR e TAF).

Le stazioni disponibili sono rappresentate dai dischi gialli e rossi sulla carta.

Puntare il mouse per vedere il nome della stazione.

Clicca sopra per visualizzare le osservazioni e previsioni meteorologiche.

Per cambiare la mappa : fare clic sui pulsanti verdi con una croce nera per ingrandire, il pulsante verde con un trattino per diminuire, o sulla freccia verde per le mappe adiacenti.


METAR-TAF: